Aeroporto :
LOGIN :

Iscrizione | Disclaimer

   EN    FR    IT 

 










Sommario :    VFR   VFR Marginale   IFR   IFR Intensivo   IFR Molto Intensivo
Visibilità : 
Base nubi : 
>= 8 km
>= 3000ft
5 / 8 km
1000 / 3000 ft
1500m / 5 km
500 / 1000 ft
800 / 1500m
200 / 500 ft
< 800m
< 200 ft
Simboli :   Temporali  Nebbia  Neve Forte  Precipitazioni Forti  Vento > 20 kt
SIGMETs :   Varie  Temporali  Ghiacco  Turbolenza  Onda orograficha  Ceneri Vulcaniche







- Altitudine del aeroporto : 117 ft
- Codice IATA : NWI
- Carte del aeroporto


EGSH - Norwich

ULTIMO METAR :
  • 170050Z AUTO 23005KT 9999 NCD 11/10 Q1016

METARs OBSOLETI :
  • 170020Z AUTO 25006KT 9999 NCD 11/10 Q1016
  • 162350Z AUTO 24005KT 9999 NCD 12/11 Q1015
  • 162320Z AUTO 23006KT 9999 NCD 13/12 Q1015
  • 162250Z AUTO 23005KT 9999 NCD 13/12 Q1015
  • 162220Z AUTO 21006KT 9999 NCD 14/13 Q1015

Previsioni scadute.
ATIS : +44 1603 420 640
Nessun NOTAM noto per questo aeroporto.



MetMap, La meteo Aeronautica in un colpo d'occhio ! - Copyright ORBIFLY Dicembre 2007 - Disclaimer

ORBIFLY MET'MAP TEAM :

Programmazione e sviluppo : Alexandra Zaïnal
Concezione e sviluppo : Baudouin d'Aumeries
Co-Programmazione e sviluppo : Marc-Olivier Méhu
Supporto tecnico e logistico : Manuel Goepfert
Aiuto per la traduzione : Arnaldo La Scala

Contatto : metmap@orbifly.com




FONTI E CREDITI :

   NOAA